Date String (YYYY-MM-DD hh:mm:ss) UTC,Instrument flags,absolute air pressure of the measurement (hPa),sample flow rate (lpm),inlet stack bypass flow (lpm),air temperature of the measurement (°C),ambient temperature measured by the external sensor (°C),aerosol sample conditioner tube jacket temperature (°C),OPC LED temperature (°C),internal box temperature (°C),relative humidity of the measurement (%),span deviation,mass concentration of particles derived from Lorenz-Mie calculation of OPC scattering (μg/m³),mass concentration of particles derived from Lorenz-Mie calculation of OPC scattering (μg/m³),mass concentration of particles derived from Lorenz-Mie calculation of OPC scattering (μg/m³)
DateTimeUTC,F1_M11,P_M11,Q1_M11,Q2_M11,T1_M11,T2_M11,T3_M11,T4_M11,T5_M11,U1_M11,ZSPAN_M11,X0_M11,X2_M11,X1_M11
2023-10-18 13:00:00,SystemResetWarning,0832.7,5.00,000.00,028.0,026.6,000.0,036.4,029.6,17.2,0000.0,0019.10,0004.03,0002.22
2023-10-18 13:01:00,SystemResetWarning,0832.7,4.99,000.00,028.0,026.6,000.0,036.4,029.7,17.1,0000.0,0018.96,0004.05,0002.24
2023-10-18 13:02:00,SystemResetWarning,0832.7,4.99,000.00,028.0,026.6,000.0,036.4,029.7,17.1,0000.0,0019.05,0004.03,0002.24
2023-10-18 13:03:00,SystemResetWarning,0832.7,5.00,000.00,028.0,026.6,000.0,036.4,029.7,17.1,0000.0,0018.91,0004.03,0002.26
2023-10-18 13:04:00,SystemResetWarning,0832.7,5.00,000.00,028.0,026.6,000.0,036.4,029.7,17.1,0000.0,0019.29,0004.00,0002.28
2023-10-18 13:05:00,SystemResetWarning,0832.6,5.00,000.00,028.0,026.6,000.0,036.4,029.7,17.1,0000.0,0019.19,0004.00,0002.29
2023-10-18 13:06:00,SystemResetWarning,0832.7,5.01,000.00,028.0,026.6,000.0,036.4,029.7,17.2,0000.0,0019.45,0003.99,0002.29
2023-10-18 13:07:00,SystemResetWarning,0832.7,5.01,000.00,028.0,026.6,000.0,036.4,029.7,17.3,0000.0,0017.53,0004.04,0002.32
2023-10-18 13:08:00,SystemResetWarning,0832.7,4.99,000.00,028.0,026.6,000.0,036.5,029.7,17.3,0000.0,0016.20,0004.11,0002.37
2023-10-18 13:09:00,SystemResetWarning,0832.7,4.99,000.00,028.1,026.6,000.0,036.5,029.7,17.1,0000.0,0016.62,0004.13,0002.40
2023-10-18 13:10:00,SystemResetWarning,0832.7,5.01,000.00,028.1,026.6,000.0,036.5,029.7,17.3,0000.0,0017.21,0004.21,0002.42
2023-10-18 13:11:00,SystemResetWarning,0832.7,5.01,000.00,028.1,026.6,000.0,036.5,029.7,17.3,0000.0,0017.46,0004.27,0002.41
2023-10-18 13:12:00,SystemResetWarning,0832.7,5.00,000.00,028.1,026.6,000.0,036.5,029.7,17.2,0000.0,0018.40,0004.30,0002.40
2023-10-18 13:13:00,SystemResetWarning,0832.7,5.00,000.00,028.1,026.6,000.0,036.5,029.6,17.3,0000.0,0019.01,0004.26,0002.40
2023-10-18 13:14:00,SystemResetWarning,0832.7,4.99,000.00,028.0,026.6,000.0,036.5,029.6,17.2,0000.0,0018.52,0004.26,0002.39
2023-10-18 13:15:00,SystemResetWarning,0832.6,5.00,000.00,028.0,026.6,000.0,036.5,029.6,17.1,0000.0,0017.09,0004.22,0002.37
2023-10-18 13:16:00,SystemResetWarning,0832.7,5.00,000.00,028.0,026.6,000.0,036.5,029.6,17.1,0000.0,0017.26,0004.21,0002.38
2023-10-18 13:17:00,SystemResetWarning,0832.7,5.00,000.00,028.0,026.5,000.0,036.5,029.6,17.2,0000.0,0016.73,0004.20,0002.38
2023-10-18 13:18:00,SystemResetWarning,0832.7,5.01,000.00,028.0,026.5,000.0,036.5,029.6,17.3,0000.0,0016.71,0004.15,0002.37
2023-10-18 13:19:00,SystemResetWarning,0832.7,5.01,000.00,028.0,026.5,000.0,036.5,029.6,17.3,0000.0,0017.69,0004.07,0002.34
2023-10-18 13:20:00,SystemResetWarning,0832.7,4.99,000.00,028.0,026.5,000.0,036.5,029.6,17.4,0000.0,0018.25,0004.06,0002.32
2023-10-18 13:21:00,SystemResetWarning,0832.7,5.00,000.00,028.0,026.5,000.0,036.5,029.6,17.3,0000.0,0017.95,0004.05,0002.30
2023-10-18 13:22:00,SystemResetWarning,0832.7,4.99,000.00,028.0,026.5,000.0,036.4,029.6,17.2,0000.0,0017.99,0004.03,0002.30
2023-10-18 13:23:00,SystemResetWarning,0832.7,5.01,000.00,028.0,026.5,000.0,036.4,029.6,17.2,0000.0,0017.07,0004.04,0002.30
2023-10-18 13:24:00,SystemResetWarning,0832.7,5.00,000.00,028.0,026.5,000.0,036.4,029.6,16.9,0000.0,0016.56,0004.06,0002.30
2023-10-18 13:25:00,SystemResetWarning,0832.7,5.01,000.00,028.0,026.5,000.0,036.4,029.6,17.0,0000.0,0017.01,0004.01,0002.28
2023-10-18 13:26:00,SystemResetWarning,0832.7,5.01,000.00,028.0,026.5,000.0,036.4,029.6,16.9,0000.0,0017.09,0004.00,0002.26
2023-10-18 13:27:00,SystemResetWarning,0832.7,5.00,000.00,028.0,026.5,000.0,036.4,029.6,16.7,0000.0,0016.58,0003.99,0002.23
2023-10-18 13:28:00,SystemResetWarning,0832.7,5.00,000.00,028.0,026.5,000.0,036.4,029.6,16.6,0000.0,0016.12,0003.98,0002.22
2023-10-18 13:29:00,SystemResetWarning,0832.7,5.00,000.00,028.0,026.5,000.0,036.4,029.6,16.7,0000.0,0016.08,0003.96,0002.19
2023-10-18 13:30:00,SystemResetWarning,0832.7,5.00,000.00,028.0,026.5,000.0,036.4,029.6,16.5,0000.0,0015.18,0004.02,0002.16
2023-10-18 13:31:00,SystemResetWarning,0832.7,5.00,000.00,028.0,026.5,000.0,036.4,029.6,16.2,0000.0,0014.03,0003.97,0002.13
2023-10-18 13:32:00,SystemResetWarning,0832.6,4.99,000.00,028.0,026.5,000.0,036.4,029.6,16.1,0000.0,0013.35,0003.91,0002.12
2023-10-18 13:33:00,SystemResetWarning,0832.6,5.00,000.00,027.9,026.5,000.0,036.4,029.6,15.9,0000.0,0013.20,0003.87,0002.08
2023-10-18 13:34:00,SystemResetWarning,0832.7,5.00,000.00,027.9,026.5,000.0,036.4,029.5,16.0,0000.0,0013.10,0003.85,0002.06
2023-10-18 13:35:00,SystemResetWarning,0832.7,5.00,000.00,027.9,026.5,000.0,036.4,029.5,16.0,0000.0,0012.75,0003.84,0002.04
2023-10-18 13:36:00,SystemResetWarning,0832.7,5.00,000.00,027.9,026.5,000.0,036.4,029.5,16.0,0000.0,0012.11,0003.84,0002.03
2023-10-18 13:37:00,SystemResetWarning,0832.7,5.00,000.00,027.9,026.5,000.0,036.4,029.5,15.9,0000.0,0012.65,0003.88,0002.03
2023-10-18 13:38:00,SystemResetWarning,0832.6,5.00,000.00,027.9,026.5,000.0,036.4,029.5,15.7,0000.0,0012.70,0003.90,0002.03
2023-10-18 13:39:00,SystemResetWarning,0832.6,5.00,000.00,027.9,026.5,000.0,036.4,029.5,15.6,0000.0,0012.72,0003.84,0002.01
2023-10-18 13:40:00,SystemResetWarning,0832.6,5.00,000.00,027.9,026.5,000.0,036.4,029.6,15.7,0000.0,0012.26,0003.80,0002.01
2023-10-18 13:41:00,SystemResetWarning,0832.6,5.01,000.00,027.9,026.5,000.0,036.4,029.5,15.6,0000.0,0011.98,0003.73,0002.00
2023-10-18 13:42:00,SystemResetWarning,0832.6,5.00,000.00,027.9,026.5,000.0,036.4,029.6,15.4,0000.0,0012.25,0003.72,0001.99
2023-10-18 13:43:00,SystemResetWarning,0832.6,5.00,000.00,027.9,026.5,000.0,036.4,029.6,15.4,0000.0,0012.63,0003.77,0002.00
2023-10-18 13:44:00,SystemResetWarning,0832.6,4.99,000.00,027.9,026.5,000.0,036.4,029.6,15.3,0000.0,0012.34,0003.78,0002.01
2023-10-18 13:45:00,SystemResetWarning,0832.7,5.00,000.00,027.9,026.5,000.0,036.4,029.6,15.5,0000.0,0012.72,0003.73,0002.02
2023-10-18 13:46:00,SystemResetWarning,0832.7,4.99,000.00,027.9,026.5,000.0,036.4,029.6,15.4,0000.0,0013.56,0003.73,0002.04
2023-10-18 13:47:00,SystemResetWarning,0832.6,5.00,000.00,028.0,026.5,000.0,036.4,029.6,15.2,0000.0,0014.49,0003.77,0002.05
2023-10-18 13:48:00,SystemResetWarning,0832.7,5.00,000.00,028.0,026.5,000.0,036.4,029.6,15.2,0000.0,0015.27,0003.77,0002.06
2023-10-18 13:49:00,SystemResetWarning,0832.6,5.00,000.00,028.0,026.5,000.0,036.4,029.6,14.5,0000.0,0016.46,0003.77,0002.07
2023-10-18 13:50:00,SystemResetWarning,0832.6,5.01,000.00,028.0,026.5,000.0,036.4,029.6,15.0,0000.0,0017.24,0003.84,0002.08
2023-10-18 13:51:00,SystemResetWarning,0832.6,5.01,000.00,028.0,026.5,000.0,036.4,029.6,15.4,0000.0,0017.64,0003.90,0002.09
2023-10-18 13:52:00,SystemResetWarning,0832.7,5.00,000.00,027.9,026.5,000.0,036.4,029.5,15.3,0000.0,0018.11,0003.93,0002.10
2023-10-18 13:53:00,SystemResetWarning,0832.7,5.00,000.00,027.9,026.5,000.0,036.4,029.6,14.9,0000.0,0018.13,0003.93,0002.10
2023-10-18 13:54:00,SystemResetWarning,0832.7,5.00,000.00,028.0,026.5,000.0,036.4,029.6,14.7,0000.0,0017.96,0003.92,0002.10
2023-10-18 13:55:00,SystemResetWarning,0832.6,5.00,000.00,028.0,026.5,000.0,036.4,029.6,14.7,0000.0,0018.67,0003.92,0002.10
2023-10-18 13:56:00,SystemResetWarning,0832.7,5.00,000.00,028.0,026.5,000.0,036.4,029.6,14.5,0000.0,0019.07,0003.91,0002.10
2023-10-18 13:57:00,SystemResetWarning,0832.6,5.00,000.00,028.0,026.5,000.0,036.4,029.6,14.3,0000.0,0018.58,0003.86,0002.08
2023-10-18 13:58:00,SystemResetWarning,0832.5,5.00,000.00,028.0,026.5,000.0,036.4,029.7,14.2,0000.0,0017.76,0003.84,0002.07
2023-10-18 13:59:00,SystemResetWarning,0832.6,5.01,000.00,028.0,026.5,000.0,036.4,029.6,14.1,0000.0,0016.61,0003.82,0002.06
